Year,Month,Day,Hour,Minute,Value (Times are PST for temperature in C)
2009,07,03,00,00,16.90
2009,07,03,00,01,16.90
2009,07,03,00,02,16.90
2009,07,03,00,03,16.90
2009,07,03,00,04,16.90
2009,07,03,00,05,16.90
2009,07,03,00,06,16.80
2009,07,03,00,07,16.80
2009,07,03,00,08,16.80
2009,07,03,00,09,16.80
2009,07,03,00,10,16.80
2009,07,03,00,11,16.80
2009,07,03,00,12,16.70
2009,07,03,00,13,16.70
2009,07,03,00,14,16.70
2009,07,03,00,15,16.70
2009,07,03,00,16,16.70
2009,07,03,00,17,16.70
2009,07,03,00,18,16.70
2009,07,03,00,19,16.70
2009,07,03,00,20,16.70
2009,07,03,00,21,16.60
2009,07,03,00,22,16.60
2009,07,03,00,23,16.60
2009,07,03,00,24,16.60
2009,07,03,00,25,16.60
2009,07,03,00,26,16.60
2009,07,03,00,27,16.60
2009,07,03,00,28,16.60
2009,07,03,00,29,16.50
2009,07,03,00,30,16.50
2009,07,03,00,31,16.50
2009,07,03,00,32,16.50
2009,07,03,00,33,16.50
2009,07,03,00,34,16.50
2009,07,03,00,35,16.40
2009,07,03,00,36,16.40
2009,07,03,00,37,16.30
2009,07,03,00,38,16.30
2009,07,03,00,39,16.30
2009,07,03,00,40,16.30
2009,07,03,00,41,16.20
2009,07,03,00,42,16.20
2009,07,03,00,43,16.20
2009,07,03,00,44,16.20
2009,07,03,00,45,16.20
2009,07,03,00,46,16.20
2009,07,03,00,47,16.20
2009,07,03,00,48,16.20
2009,07,03,00,49,16.10
2009,07,03,00,50,16.10
2009,07,03,00,51,16.10
2009,07,03,00,52,16.00
2009,07,03,00,53,16.00
2009,07,03,00,54,15.90
2009,07,03,00,55,15.90
2009,07,03,00,56,15.90
2009,07,03,00,57,15.80
2009,07,03,00,58,15.80
2009,07,03,00,59,15.70
2009,07,03,01,00,15.70
2009,07,03,01,01,15.70
2009,07,03,01,02,15.70
2009,07,03,01,03,15.70
2009,07,03,01,04,15.70
2009,07,03,01,05,15.70
2009,07,03,01,06,15.70
2009,07,03,01,07,15.80
2009,07,03,01,08,15.70
2009,07,03,01,09,15.70
2009,07,03,01,10,15.70
2009,07,03,01,11,15.70
2009,07,03,01,12,15.60
2009,07,03,01,13,15.60
2009,07,03,01,14,15.50
2009,07,03,01,15,15.50
2009,07,03,01,16,15.40
2009,07,03,01,17,15.30
2009,07,03,01,18,15.30
2009,07,03,01,19,15.20
2009,07,03,01,20,15.10
2009,07,03,01,21,15.00
2009,07,03,01,22,15.00
2009,07,03,01,23,15.00
2009,07,03,01,24,15.00
2009,07,03,01,25,15.00
2009,07,03,01,26,14.90
2009,07,03,01,27,14.80
2009,07,03,01,28,14.80
2009,07,03,01,29,14.80
2009,07,03,01,30,14.70
2009,07,03,01,31,14.70
2009,07,03,01,32,14.60
2009,07,03,01,33,14.60
2009,07,03,01,34,14.60
2009,07,03,01,35,14.50
2009,07,03,01,36,14.50
2009,07,03,01,37,14.50
2009,07,03,01,38,14.40
2009,07,03,01,39,14.40
2009,07,03,01,40,14.40
2009,07,03,01,41,14.40
2009,07,03,01,42,14.30
2009,07,03,01,43,14.30
2009,07,03,01,44,14.30
2009,07,03,01,45,14.30
2009,07,03,01,46,14.30
2009,07,03,01,47,14.30
2009,07,03,01,48,14.30
2009,07,03,01,49,14.30
2009,07,03,01,50,14.30
2009,07,03,01,51,14.30
2009,07,03,01,52,14.20
2009,07,03,01,53,14.20
2009,07,03,01,54,14.20
2009,07,03,01,55,14.20
2009,07,03,01,56,14.10
2009,07,03,01,57,14.10
2009,07,03,01,58,14.10
2009,07,03,01,59,14.10
2009,07,03,02,00,14.20
2009,07,03,02,01,14.20
2009,07,03,02,02,14.20
2009,07,03,02,03,14.30
2009,07,03,02,04,14.30
2009,07,03,02,05,14.30
2009,07,03,02,06,14.30
2009,07,03,02,07,14.40
2009,07,03,02,08,14.40
2009,07,03,02,09,14.40
2009,07,03,02,10,14.40
2009,07,03,02,11,14.40
2009,07,03,02,12,14.40
2009,07,03,02,13,14.40
2009,07,03,02,14,14.40
2009,07,03,02,15,14.40
2009,07,03,02,16,14.40
2009,07,03,02,17,14.40
2009,07,03,02,18,14.40
2009,07,03,02,19,14.40
2009,07,03,02,20,14.40
2009,07,03,02,21,14.50
2009,07,03,02,22,14.50
2009,07,03,02,23,14.60
2009,07,03,02,24,14.70
2009,07,03,02,25,14.90
2009,07,03,02,26,15.00
2009,07,03,02,27,15.00
2009,07,03,02,28,15.10
2009,07,03,02,29,15.20
2009,07,03,02,30,15.30
2009,07,03,02,31,15.40
2009,07,03,02,32,15.40
2009,07,03,02,33,15.50
2009,07,03,02,34,15.60
2009,07,03,02,35,15.60
2009,07,03,02,36,15.70
2009,07,03,02,37,15.70
2009,07,03,02,38,15.70
2009,07,03,02,39,15.80
2009,07,03,02,40,15.80
2009,07,03,02,41,15.80
2009,07,03,02,42,15.80
2009,07,03,02,43,15.80
2009,07,03,02,44,15.70
2009,07,03,02,45,15.70
2009,07,03,02,46,15.60
2009,07,03,02,47,15.50
2009,07,03,02,48,15.40
2009,07,03,02,49,15.30
2009,07,03,02,50,15.30
2009,07,03,02,51,15.30
2009,07,03,02,52,15.30
2009,07,03,02,53,15.40
2009,07,03,02,54,15.60
2009,07,03,02,55,15.70
2009,07,03,02,56,15.90
2009,07,03,02,57,16.00
2009,07,03,02,58,16.10
2009,07,03,02,59,16.20
2009,07,03,03,00,16.30
2009,07,03,03,01,16.30
2009,07,03,03,02,16.30
2009,07,03,03,03,16.30
2009,07,03,03,04,16.30
2009,07,03,03,05,16.30
2009,07,03,03,06,16.30
2009,07,03,03,07,16.30
2009,07,03,03,08,16.30
2009,07,03,03,09,16.30
2009,07,03,03,10,16.30
2009,07,03,03,11,16.30
2009,07,03,03,12,16.30
2009,07,03,03,13,16.20
2009,07,03,03,14,16.00
2009,07,03,03,15,15.80
2009,07,03,03,16,15.70
2009,07,03,03,17,15.50
2009,07,03,03,18,15.50
2009,07,03,03,19,15.40
2009,07,03,03,20,15.40
2009,07,03,03,21,15.40
2009,07,03,03,22,15.40
2009,07,03,03,23,15.40
2009,07,03,03,24,15.40
2009,07,03,03,25,15.40
2009,07,03,03,26,15.30
2009,07,03,03,27,15.30
2009,07,03,03,28,15.20
2009,07,03,03,29,15.20
2009,07,03,03,30,15.20
2009,07,03,03,31,15.20
2009,07,03,03,32,15.20
2009,07,03,03,33,15.20
2009,07,03,03,34,15.20
2009,07,03,03,35,15.20
2009,07,03,03,36,15.10
2009,07,03,03,37,15.10
2009,07,03,03,38,15.10
2009,07,03,03,39,15.10
2009,07,03,03,40,15.00
2009,07,03,03,41,15.00
2009,07,03,03,42,15.00
2009,07,03,03,43,15.00
2009,07,03,03,44,14.90
2009,07,03,03,45,14.80
2009,07,03,03,46,14.70
2009,07,03,03,47,14.60
2009,07,03,03,48,14.60
2009,07,03,03,49,14.50
2009,07,03,03,50,14.30
2009,07,03,03,51,14.20
2009,07,03,03,52,14.10
2009,07,03,03,53,14.00
2009,07,03,03,54,13.90
2009,07,03,03,55,13.90
2009,07,03,03,56,13.80
2009,07,03,03,57,13.80
2009,07,03,03,58,13.70
2009,07,03,03,59,13.70
2009,07,03,04,00,13.60
2009,07,03,04,01,13.60
2009,07,03,04,02,13.60
2009,07,03,04,03,13.50
2009,07,03,04,04,13.40
2009,07,03,04,05,13.30
2009,07,03,04,06,13.30
2009,07,03,04,07,13.20
2009,07,03,04,08,13.20
2009,07,03,04,09,13.20
2009,07,03,04,10,13.10
2009,07,03,04,11,13.10
2009,07,03,04,12,13.10
2009,07,03,04,13,13.00
2009,07,03,04,14,13.00
2009,07,03,04,15,12.90
2009,07,03,04,16,12.90
2009,07,03,04,17,12.90
2009,07,03,04,18,12.80
2009,07,03,04,19,12.80
2009,07,03,04,20,12.80
2009,07,03,04,21,12.80
2009,07,03,04,22,12.80
2009,07,03,04,23,12.70
2009,07,03,04,24,12.70
2009,07,03,04,25,12.70
2009,07,03,04,26,12.70
2009,07,03,04,27,12.70
2009,07,03,04,28,12.70
2009,07,03,04,29,12.70
2009,07,03,04,30,12.70
2009,07,03,04,31,12.70
2009,07,03,04,32,12.70
2009,07,03,04,33,12.70
2009,07,03,04,34,12.70
2009,07,03,04,35,12.70
2009,07,03,04,36,12.70
2009,07,03,04,37,12.70
2009,07,03,04,38,12.70
2009,07,03,04,39,12.70
2009,07,03,04,40,12.70
2009,07,03,04,41,12.70
2009,07,03,04,42,12.70
2009,07,03,04,43,12.60
2009,07,03,04,44,12.60
2009,07,03,04,45,12.60
2009,07,03,04,46,12.60
2009,07,03,04,47,12.60
2009,07,03,04,48,12.60
2009,07,03,04,49,12.60
2009,07,03,04,50,12.60
2009,07,03,04,51,12.60
2009,07,03,04,52,12.60
2009,07,03,04,53,12.60
2009,07,03,04,54,12.60
2009,07,03,04,55,12.60
2009,07,03,04,56,12.60
2009,07,03,04,57,12.60
2009,07,03,04,58,12.60
2009,07,03,04,59,12.60
2009,07,03,05,00,12.60
2009,07,03,05,01,12.60
2009,07,03,05,02,12.60
2009,07,03,05,03,12.60
2009,07,03,05,04,12.60
2009,07,03,05,05,12.60
2009,07,03,05,06,12.60
2009,07,03,05,07,12.60
2009,07,03,05,08,12.60
2009,07,03,05,09,12.60
2009,07,03,05,10,12.50
2009,07,03,05,11,12.50
2009,07,03,05,12,12.50
2009,07,03,05,13,12.40
2009,07,03,05,14,12.40
2009,07,03,05,15,12.40
2009,07,03,05,16,12.40
2009,07,03,05,17,12.40
2009,07,03,05,18,12.40
2009,07,03,05,19,12.40
2009,07,03,05,20,12.40
2009,07,03,05,21,12.40
2009,07,03,05,22,12.40
2009,07,03,05,23,12.40
2009,07,03,05,24,12.40
2009,07,03,05,25,12.40
2009,07,03,05,26,12.40
2009,07,03,05,27,12.40
2009,07,03,05,28,12.40
2009,07,03,05,29,12.50
2009,07,03,05,30,12.40
2009,07,03,05,31,12.40
2009,07,03,05,32,12.40
2009,07,03,05,33,12.40
2009,07,03,05,34,12.40
2009,07,03,05,35,12.40
2009,07,03,05,36,12.40
2009,07,03,05,37,12.30
2009,07,03,05,38,12.30
2009,07,03,05,39,12.30
2009,07,03,05,40,12.30
2009,07,03,05,41,12.30
2009,07,03,05,42,12.30
2009,07,03,05,43,12.30
2009,07,03,05,44,12.30
2009,07,03,05,45,12.30
2009,07,03,05,46,12.30
2009,07,03,05,47,12.40
2009,07,03,05,48,12.40
2009,07,03,05,49,12.50
2009,07,03,05,50,12.50
2009,07,03,05,51,12.60
2009,07,03,05,52,12.60
2009,07,03,05,53,12.60
2009,07,03,05,54,12.70
2009,07,03,05,55,12.70
2009,07,03,05,56,12.80
2009,07,03,05,57,12.80
2009,07,03,05,58,12.80
2009,07,03,05,59,12.90
2009,07,03,06,00,12.90
2009,07,03,06,01,13.00
2009,07,03,06,02,13.00
2009,07,03,06,03,13.00
2009,07,03,06,04,13.10
2009,07,03,06,05,13.10
2009,07,03,06,06,13.10
2009,07,03,06,07,13.20
2009,07,03,06,08,13.20
2009,07,03,06,09,13.20
2009,07,03,06,10,13.20
2009,07,03,06,11,13.20
2009,07,03,06,12,13.20
2009,07,03,06,13,13.30
2009,07,03,06,14,13.30
2009,07,03,06,15,13.30
2009,07,03,06,16,13.40
2009,07,03,06,17,13.50
2009,07,03,06,18,13.50
2009,07,03,06,19,13.60
2009,07,03,06,20,13.60
2009,07,03,06,21,13.60
2009,07,03,06,22,13.70
2009,07,03,06,23,13.70
2009,07,03,06,24,13.70
2009,07,03,06,25,13.60
2009,07,03,06,26,13.60
2009,07,03,06,27,13.60
2009,07,03,06,28,13.60
2009,07,03,06,29,13.60
2009,07,03,06,30,13.60
2009,07,03,06,31,13.60
2009,07,03,06,32,13.60
2009,07,03,06,33,13.60
2009,07,03,06,34,13.60
2009,07,03,06,35,13.60
2009,07,03,06,36,13.60
2009,07,03,06,37,13.60
2009,07,03,06,38,13.60
2009,07,03,06,39,13.60
2009,07,03,06,40,13.70
2009,07,03,06,41,13.70
2009,07,03,06,42,13.70
2009,07,03,06,43,13.70
2009,07,03,06,44,13.70
2009,07,03,06,45,13.70
2009,07,03,06,46,13.80
2009,07,03,06,47,13.80
2009,07,03,06,48,13.80
2009,07,03,06,49,13.80
2009,07,03,06,50,13.90
2009,07,03,06,51,13.90
2009,07,03,06,52,14.00
2009,07,03,06,53,14.00
2009,07,03,06,54,14.10
2009,07,03,06,55,14.10
2009,07,03,06,56,14.20
2009,07,03,06,57,14.20
2009,07,03,06,58,14.20
2009,07,03,06,59,14.30
2009,07,03,07,00,14.30
2009,07,03,07,01,14.30
2009,07,03,07,02,14.30
2009,07,03,07,03,14.40
2009,07,03,07,04,14.40
2009,07,03,07,05,14.40
2009,07,03,07,06,14.40
2009,07,03,07,07,14.50
2009,07,03,07,08,14.50
2009,07,03,07,09,14.60
2009,07,03,07,10,14.60
2009,07,03,07,11,14.60
2009,07,03,07,12,14.70
2009,07,03,07,13,14.80
2009,07,03,07,14,14.80
2009,07,03,07,15,14.90
2009,07,03,07,16,15.00
2009,07,03,07,17,15.00
2009,07,03,07,18,15.00
2009,07,03,07,19,15.00
2009,07,03,07,20,15.00
2009,07,03,07,21,15.00
2009,07,03,07,22,15.00
2009,07,03,07,23,15.10
2009,07,03,07,24,15.10
2009,07,03,07,25,15.20
2009,07,03,07,26,15.20
2009,07,03,07,27,15.30
2009,07,03,07,28,15.30
2009,07,03,07,29,15.40
2009,07,03,07,30,15.50
2009,07,03,07,31,15.60
2009,07,03,07,32,15.60
2009,07,03,07,33,15.70
2009,07,03,07,34,15.70
2009,07,03,07,35,15.80
2009,07,03,07,36,15.80
2009,07,03,07,37,15.90
2009,07,03,07,38,15.90
2009,07,03,07,39,16.00
2009,07,03,07,40,16.10
2009,07,03,07,41,16.10
2009,07,03,07,42,16.20
2009,07,03,07,43,16.30
2009,07,03,07,44,16.40
2009,07,03,07,45,16.40
2009,07,03,07,46,16.50
2009,07,03,07,47,16.50
2009,07,03,07,48,16.60
2009,07,03,07,49,16.70
2009,07,03,07,50,16.70
2009,07,03,07,51,16.80
2009,07,03,07,52,16.90
2009,07,03,07,53,16.90
2009,07,03,07,54,17.00
2009,07,03,07,55,17.10
2009,07,03,07,56,17.10
2009,07,03,07,57,17.20
2009,07,03,07,58,17.30
2009,07,03,07,59,17.30
2009,07,03,08,00,17.40
2009,07,03,08,01,17.50
2009,07,03,08,02,17.50
2009,07,03,08,03,17.60
2009,07,03,08,04,17.70
2009,07,03,08,05,17.90
2009,07,03,08,06,18.00
2009,07,03,08,07,18.10
2009,07,03,08,08,18.30
2009,07,03,08,09,18.40
2009,07,03,08,10,18.60
2009,07,03,08,11,18.70
2009,07,03,08,12,18.80
2009,07,03,08,13,19.00
2009,07,03,08,14,19.10
2009,07,03,08,15,19.10
2009,07,03,08,16,19.20
2009,07,03,08,17,19.30
2009,07,03,08,18,19.40
2009,07,03,08,19,19.40
2009,07,03,08,20,19.50
2009,07,03,08,21,19.60
2009,07,03,08,22,19.70
2009,07,03,08,23,19.70
2009,07,03,08,24,19.70
2009,07,03,08,25,19.70
2009,07,03,08,26,19.70
2009,07,03,08,27,19.80
2009,07,03,08,28,19.80
2009,07,03,08,29,19.90
2009,07,03,08,30,20.00
2009,07,03,08,31,20.00
2009,07,03,08,32,20.00
2009,07,03,08,33,20.00
2009,07,03,08,34,20.00
2009,07,03,08,35,20.00
2009,07,03,08,36,20.00
2009,07,03,08,37,20.10
2009,07,03,08,38,20.10
2009,07,03,08,39,20.10
2009,07,03,08,40,20.10
2009,07,03,08,41,20.10
2009,07,03,08,42,20.10
2009,07,03,08,43,20.10
2009,07,03,08,44,20.20
2009,07,03,08,45,20.20
2009,07,03,08,46,20.20
2009,07,03,08,47,20.20
2009,07,03,08,48,20.20
2009,07,03,08,49,20.20
2009,07,03,08,50,20.20
2009,07,03,08,51,20.20
2009,07,03,08,52,20.20
2009,07,03,08,53,20.20
2009,07,03,08,54,20.20
2009,07,03,08,55,20.20
2009,07,03,08,56,20.30
2009,07,03,08,57,20.30
2009,07,03,08,58,20.40
2009,07,03,08,59,20.40
2009,07,03,09,00,20.40
2009,07,03,09,01,20.40
2009,07,03,09,02,20.50
2009,07,03,09,03,20.60
2009,07,03,09,04,20.70
2009,07,03,09,05,20.80
2009,07,03,09,06,20.80
2009,07,03,09,07,20.90
2009,07,03,09,08,21.00
2009,07,03,09,09,21.00
2009,07,03,09,10,20.80
2009,07,03,09,11,20.50
2009,07,03,09,12,20.30
2009,07,03,09,13,20.20
2009,07,03,09,14,20.10
2009,07,03,09,15,20.00
2009,07,03,09,16,19.90
2009,07,03,09,17,19.70
2009,07,03,09,18,19.60
2009,07,03,09,19,19.50
2009,07,03,09,20,19.30
2009,07,03,09,21,19.10
2009,07,03,09,22,19.10
2009,07,03,09,23,19.00
2009,07,03,09,24,19.00
2009,07,03,09,25,19.00
2009,07,03,09,26,18.90
2009,07,03,09,27,18.80
2009,07,03,09,28,18.80
2009,07,03,09,29,18.90
2009,07,03,09,30,19.00
2009,07,03,09,31,19.10
2009,07,03,09,32,19.20
2009,07,03,09,33,19.30
2009,07,03,09,34,19.40
2009,07,03,09,35,19.40
2009,07,03,09,36,19.50
2009,07,03,09,37,19.50
2009,07,03,09,38,19.60
2009,07,03,09,39,19.70
2009,07,03,09,40,19.70
2009,07,03,09,41,19.70
2009,07,03,09,42,19.70
2009,07,03,09,43,19.80
2009,07,03,09,44,19.90
2009,07,03,09,45,19.90
2009,07,03,09,46,20.00
2009,07,03,09,47,20.10
2009,07,03,09,48,20.20
2009,07,03,09,49,20.30
2009,07,03,09,50,20.40
2009,07,03,09,51,20.50
2009,07,03,09,52,20.60
2009,07,03,09,53,20.70
2009,07,03,09,54,20.80
2009,07,03,09,55,20.80
2009,07,03,09,56,20.90
2009,07,03,09,57,20.90
2009,07,03,09,58,20.90
2009,07,03,09,59,20.90
2009,07,03,10,00,20.90
2009,07,03,10,01,20.90
2009,07,03,10,02,20.80
2009,07,03,10,03,20.70
2009,07,03,10,04,20.70
2009,07,03,10,05,20.70
2009,07,03,10,06,20.70
2009,07,03,10,07,20.70
2009,07,03,10,08,20.60
2009,07,03,10,09,20.60
2009,07,03,10,10,20.50
2009,07,03,10,11,20.50
2009,07,03,10,12,20.40
2009,07,03,10,13,20.40
2009,07,03,10,14,20.30
2009,07,03,10,15,20.30
2009,07,03,10,16,20.40
2009,07,03,10,17,20.50
2009,07,03,10,18,20.70
2009,07,03,10,19,20.80
2009,07,03,10,20,20.90
2009,07,03,10,21,21.00
2009,07,03,10,22,21.00
2009,07,03,10,23,20.90
2009,07,03,10,24,21.00
2009,07,03,10,25,21.00
2009,07,03,10,26,21.00
2009,07,03,10,27,21.00
2009,07,03,10,28,21.00
2009,07,03,10,29,21.10
2009,07,03,10,30,21.10
2009,07,03,10,31,21.10
2009,07,03,10,32,21.10
2009,07,03,10,33,21.10
2009,07,03,10,34,21.10
2009,07,03,10,35,21.10
2009,07,03,10,36,21.20
2009,07,03,10,37,21.30
2009,07,03,10,38,21.40
2009,07,03,10,39,21.40
2009,07,03,10,40,21.30
2009,07,03,10,41,21.30
2009,07,03,10,42,21.30
2009,07,03,10,43,21.20
2009,07,03,10,44,21.20
2009,07,03,10,45,21.20
2009,07,03,10,46,21.20
2009,07,03,10,47,21.20
2009,07,03,10,48,21.20
2009,07,03,10,49,21.10
2009,07,03,10,50,21.00
2009,07,03,10,51,21.10
2009,07,03,10,52,21.10
2009,07,03,10,53,21.20
2009,07,03,10,54,21.30
2009,07,03,10,55,21.40
2009,07,03,10,56,21.50
2009,07,03,10,57,21.50
2009,07,03,10,58,21.50
2009,07,03,10,59,21.40
2009,07,03,11,00,21.50
2009,07,03,11,01,21.60
2009,07,03,11,02,21.60
2009,07,03,11,03,21.50
2009,07,03,11,04,21.40
2009,07,03,11,05,21.30
2009,07,03,11,06,21.30
2009,07,03,11,07,21.20
2009,07,03,11,08,21.10
2009,07,03,11,09,21.10
2009,07,03,11,10,21.00
2009,07,03,11,11,21.00
2009,07,03,11,12,21.10
2009,07,03,11,13,21.20
2009,07,03,11,14,21.20
2009,07,03,11,15,21.30
2009,07,03,11,16,21.20
2009,07,03,11,17,21.20
2009,07,03,11,18,21.10
2009,07,03,11,19,21.20
2009,07,03,11,20,21.10
2009,07,03,11,21,21.20
2009,07,03,11,22,21.20
2009,07,03,11,23,21.20
2009,07,03,11,24,21.10
2009,07,03,11,25,21.10
2009,07,03,11,26,21.10
2009,07,03,11,27,21.10
2009,07,03,11,28,21.10
2009,07,03,11,29,21.10
2009,07,03,11,30,21.10
2009,07,03,11,31,21.20
2009,07,03,11,32,21.40
2009,07,03,11,33,21.30
2009,07,03,11,34,21.30
2009,07,03,11,35,21.40
2009,07,03,11,36,21.50
2009,07,03,11,37,21.50
2009,07,03,11,38,21.50
2009,07,03,11,39,21.50
2009,07,03,11,40,21.60
2009,07,03,11,41,21.60
2009,07,03,11,42,21.60
2009,07,03,11,43,21.60
2009,07,03,11,44,21.50
2009,07,03,11,45,21.50
2009,07,03,11,46,21.50
2009,07,03,11,47,21.50
2009,07,03,11,48,21.50
2009,07,03,11,49,21.40
2009,07,03,11,50,21.30
2009,07,03,11,51,21.20
2009,07,03,11,52,21.20
2009,07,03,11,53,21.20
2009,07,03,11,54,21.20
2009,07,03,11,55,21.30
2009,07,03,11,56,21.30
2009,07,03,11,57,21.40
2009,07,03,11,58,21.50
2009,07,03,11,59,21.60
2009,07,03,12,00,21.70
2009,07,03,12,01,21.90
2009,07,03,12,02,22.10
2009,07,03,12,03,22.20
2009,07,03,12,04,22.30
2009,07,03,12,05,22.20
2009,07,03,12,06,22.10
2009,07,03,12,07,22.00
2009,07,03,12,08,22.00
2009,07,03,12,09,22.20
2009,07,03,12,10,22.20
2009,07,03,12,11,22.10
2009,07,03,12,12,22.10
2009,07,03,12,13,22.10
2009,07,03,12,14,22.20
2009,07,03,12,15,22.30
2009,07,03,12,16,22.50
2009,07,03,12,17,22.40
2009,07,03,12,18,22.50
2009,07,03,12,19,22.60
2009,07,03,12,20,22.70
2009,07,03,12,21,22.80
2009,07,03,12,22,22.80
2009,07,03,12,23,22.80
2009,07,03,12,24,22.80
2009,07,03,12,25,22.80
2009,07,03,12,26,22.80
2009,07,03,12,27,22.80
2009,07,03,12,28,22.90
2009,07,03,12,29,23.00
2009,07,03,12,30,23.00
2009,07,03,12,31,22.90
2009,07,03,12,32,22.90
2009,07,03,12,33,22.90
2009,07,03,12,34,22.90
2009,07,03,12,35,22.90
2009,07,03,12,36,22.80
2009,07,03,12,37,22.80
2009,07,03,12,38,22.80
2009,07,03,12,39,22.80
2009,07,03,12,40,22.80
2009,07,03,12,41,22.90
2009,07,03,12,42,23.00
2009,07,03,12,43,23.10
2009,07,03,12,44,23.20
2009,07,03,12,45,23.20
2009,07,03,12,46,23.40
2009,07,03,12,47,23.40
2009,07,03,12,48,23.40
2009,07,03,12,49,23.40
2009,07,03,12,50,23.30
2009,07,03,12,51,23.20
2009,07,03,12,52,23.30
2009,07,03,12,53,23.40
2009,07,03,12,54,23.50
2009,07,03,12,55,23.60
2009,07,03,12,56,23.50
2009,07,03,12,57,23.50
2009,07,03,12,58,23.40
2009,07,03,12,59,23.40
2009,07,03,13,00,23.40
2009,07,03,13,01,23.30
2009,07,03,13,02,23.20
2009,07,03,13,03,23.10
2009,07,03,13,04,23.10
2009,07,03,13,05,23.20
2009,07,03,13,06,23.40
2009,07,03,13,07,23.50
2009,07,03,13,08,23.60
2009,07,03,13,09,23.70
2009,07,03,13,10,23.90
2009,07,03,13,11,24.00
2009,07,03,13,12,24.20
2009,07,03,13,13,24.30
2009,07,03,13,14,24.50
2009,07,03,13,15,24.60
2009,07,03,13,16,24.40
2009,07,03,13,17,24.20
2009,07,03,13,18,24.00
2009,07,03,13,19,23.90
2009,07,03,13,20,23.90
2009,07,03,13,21,23.90
2009,07,03,13,22,24.00
2009,07,03,13,23,24.00
2009,07,03,13,24,24.10
2009,07,03,13,25,24.10
2009,07,03,13,26,24.30
2009,07,03,13,27,24.30
2009,07,03,13,28,24.40
2009,07,03,13,29,24.40
2009,07,03,13,30,24.40
2009,07,03,13,31,24.40
2009,07,03,13,32,24.20
2009,07,03,13,33,24.10
2009,07,03,13,34,24.10
2009,07,03,13,35,24.10
2009,07,03,13,36,24.10
2009,07,03,13,37,24.20
2009,07,03,13,38,24.30
2009,07,03,13,39,24.60
2009,07,03,13,40,24.80
2009,07,03,13,41,24.80
2009,07,03,13,42,24.60
2009,07,03,13,43,24.60
2009,07,03,13,44,24.50
2009,07,03,13,45,24.50
2009,07,03,13,46,24.50
2009,07,03,13,47,24.50
2009,07,03,13,48,24.60
2009,07,03,13,49,24.50
2009,07,03,13,50,24.50
2009,07,03,13,51,24.40
2009,07,03,13,52,24.30
2009,07,03,13,53,24.20
2009,07,03,13,54,24.30
2009,07,03,13,55,24.50
2009,07,03,13,56,24.60
2009,07,03,13,57,24.70
2009,07,03,13,58,24.70
2009,07,03,13,59,24.70
2009,07,03,14,00,24.60
2009,07,03,14,01,24.50
2009,07,03,14,02,24.40
2009,07,03,14,03,24.40
2009,07,03,14,04,24.40
2009,07,03,14,05,24.50
2009,07,03,14,06,24.60
2009,07,03,14,07,24.60
2009,07,03,14,08,24.70
2009,07,03,14,09,24.60
2009,07,03,14,10,24.50
2009,07,03,14,11,24.40
2009,07,03,14,12,24.50
2009,07,03,14,13,24.60
2009,07,03,14,14,24.60
2009,07,03,14,15,24.60
2009,07,03,14,16,24.50
2009,07,03,14,17,24.50
2009,07,03,14,18,24.50
2009,07,03,14,19,24.50
2009,07,03,14,20,24.40
2009,07,03,14,21,24.30
2009,07,03,14,22,24.30
2009,07,03,14,23,24.40
2009,07,03,14,24,24.60
2009,07,03,14,25,24.70
2009,07,03,14,26,24.80
2009,07,03,14,27,25.00
2009,07,03,14,28,25.00
2009,07,03,14,29,24.90
2009,07,03,14,30,24.90
2009,07,03,14,31,24.90
2009,07,03,14,32,25.00
2009,07,03,14,33,25.10
2009,07,03,14,34,25.20
2009,07,03,14,35,25.30
2009,07,03,14,36,25.30
2009,07,03,14,37,25.30
2009,07,03,14,38,25.20
2009,07,03,14,39,25.20
2009,07,03,14,40,25.20
2009,07,03,14,41,25.20
2009,07,03,14,42,25.50
2009,07,03,14,43,25.70
2009,07,03,14,44,25.70
2009,07,03,14,45,25.60
2009,07,03,14,46,25.60
2009,07,03,14,47,25.50
2009,07,03,14,48,25.40
2009,07,03,14,49,25.40
2009,07,03,14,50,25.50
2009,07,03,14,51,25.50
2009,07,03,14,52,25.50
2009,07,03,14,53,25.50
2009,07,03,14,54,25.50
2009,07,03,14,55,25.60
2009,07,03,14,56,25.70
2009,07,03,14,57,25.60
2009,07,03,14,58,25.50
2009,07,03,14,59,25.50
2009,07,03,15,00,25.50
2009,07,03,15,01,25.50
2009,07,03,15,02,25.60
2009,07,03,15,03,25.60
2009,07,03,15,04,25.40
2009,07,03,15,05,25.10
2009,07,03,15,06,24.80
2009,07,03,15,07,24.60
2009,07,03,15,08,24.40
2009,07,03,15,09,24.30
2009,07,03,15,10,24.30
2009,07,03,15,11,24.50
2009,07,03,15,12,24.70
2009,07,03,15,13,24.70
2009,07,03,15,14,24.70
2009,07,03,15,15,24.70
2009,07,03,15,16,24.90
2009,07,03,15,17,25.10
2009,07,03,15,18,25.10
2009,07,03,15,19,25.20
2009,07,03,15,20,25.20
2009,07,03,15,21,25.10
2009,07,03,15,22,25.00
2009,07,03,15,23,25.00
2009,07,03,15,24,25.10
2009,07,03,15,25,25.10
2009,07,03,15,26,25.10
2009,07,03,15,27,25.10
2009,07,03,15,28,25.00
2009,07,03,15,29,25.10
2009,07,03,15,30,25.20
2009,07,03,15,31,25.30
2009,07,03,15,32,25.30
2009,07,03,15,33,25.20
2009,07,03,15,34,25.20
2009,07,03,15,35,25.30
2009,07,03,15,36,25.40
2009,07,03,15,37,25.50
2009,07,03,15,38,25.50
2009,07,03,15,39,25.50
2009,07,03,15,40,25.50
2009,07,03,15,41,25.60
2009,07,03,15,42,25.60
2009,07,03,15,43,25.70
2009,07,03,15,44,25.70
2009,07,03,15,45,25.80
2009,07,03,15,46,25.70
2009,07,03,15,47,25.50
2009,07,03,15,48,25.30
2009,07,03,15,49,25.20
2009,07,03,15,50,25.10
2009,07,03,15,51,25.00
2009,07,03,15,52,25.00
2009,07,03,15,53,25.00
2009,07,03,15,54,24.90
2009,07,03,15,55,24.90
2009,07,03,15,56,24.80
2009,07,03,15,57,24.80
2009,07,03,15,58,24.80
2009,07,03,15,59,24.90
2009,07,03,16,00,24.90
2009,07,03,16,01,24.90
2009,07,03,16,02,24.90
2009,07,03,16,03,25.00
2009,07,03,16,04,25.20
2009,07,03,16,05,25.20
2009,07,03,16,06,25.10
2009,07,03,16,07,25.00
2009,07,03,16,08,25.00
2009,07,03,16,09,24.90
2009,07,03,16,10,24.90
2009,07,03,16,11,24.80
2009,07,03,16,12,24.80
2009,07,03,16,13,24.80
2009,07,03,16,14,24.80
2009,07,03,16,15,24.70
2009,07,03,16,16,24.70
2009,07,03,16,17,24.70
2009,07,03,16,18,24.80
2009,07,03,16,19,24.80
2009,07,03,16,20,24.80
2009,07,03,16,21,24.70
2009,07,03,16,22,24.70
2009,07,03,16,23,24.70
2009,07,03,16,24,24.90
2009,07,03,16,25,25.00
2009,07,03,16,26,25.00
2009,07,03,16,27,25.00
2009,07,03,16,28,24.90
2009,07,03,16,29,24.70
2009,07,03,16,30,24.60
2009,07,03,16,31,24.60
2009,07,03,16,32,24.50
2009,07,03,16,33,24.50
2009,07,03,16,34,24.40
2009,07,03,16,35,24.30
2009,07,03,16,36,24.30
2009,07,03,16,37,24.30
2009,07,03,16,38,24.30
2009,07,03,16,39,24.30
2009,07,03,16,40,24.20
2009,07,03,16,41,24.20
2009,07,03,16,42,24.10
2009,07,03,16,43,24.10
2009,07,03,16,44,24.10
2009,07,03,16,45,24.10
2009,07,03,16,46,24.20
2009,07,03,16,47,24.20
2009,07,03,16,48,24.20
2009,07,03,16,49,24.20
2009,07,03,16,50,24.20
2009,07,03,16,51,24.10
2009,07,03,16,52,24.00
2009,07,03,16,53,23.90
2009,07,03,16,54,23.90
2009,07,03,16,55,24.00
2009,07,03,16,56,24.00
2009,07,03,16,57,24.10
2009,07,03,16,58,24.10
2009,07,03,16,59,24.00
2009,07,03,17,00,23.90
2009,07,03,17,01,23.80
2009,07,03,17,02,23.80
2009,07,03,17,03,23.80
2009,07,03,17,04,23.90
2009,07,03,17,05,23.90
2009,07,03,17,06,23.90
2009,07,03,17,07,23.80
2009,07,03,17,08,23.80
2009,07,03,17,09,23.90
2009,07,03,17,10,24.00
2009,07,03,17,11,24.00
2009,07,03,17,12,24.10
2009,07,03,17,13,24.20
2009,07,03,17,14,24.10
2009,07,03,17,15,23.90
2009,07,03,17,16,23.80
2009,07,03,17,17,23.70
2009,07,03,17,18,23.60
2009,07,03,17,19,23.60